Myrtle Beach, SC

5:19 AM EDT on June 29, 2017 (GMT -0400)
Myrtle Beach International

Weather History for KMYR - September, 2013

Change the Weather History Date:

Friday, September 13, 2013

  Actual Average Record
Temperature  
Mean Temperature 80 °F -  
Max Temperature 87 °F 80 °F 89 °F (2000)
Min Temperature 73 °F 65 °F 58 °F (1992)
Cooling Degree Days 15    
Growing Degree Days 30 (Base 50)    
Moisture  
Dew Point 68 °F    
Average Humidity 75    
Maximum Humidity 89    
Minimum Humidity 49    
Precipitation  
Precipitation 0.00 in - - ()
Sea Level Pressure  
Sea Level Pressure 29.82 in    
Wind  
Wind Speed 8 mph (WSW)    
Max Wind Speed 14 mph    
Max Gust Speed 20 mph    
Visibility 10 miles    
Events      
Averages and records for this station are not official NWS values.
T = Trace of Precipitation, MM = Missing Value Source: NWS Daily Summary

Daily Weather History Graph

Daily Weather History Graph

Search for Another Location

Airport or City:

Trip Planner

Search our weather history database for the weather conditions in past years. The results will help you decide how hot, cold, wet, or windy it might be!

Date:

Astronomy

Sep. 13, 2013 Rise Set
Actual Time 6:57 AM EDT 7:24 PM EDT
Civil Twilight 6:32 AM EDT 7:49 PM EDT
Nautical Twilight 6:03 AM EDT 8:18 PM EDT
Astronomical Twilight 5:33 AM EDT 8:48 PM EDT
Moon 3:00 PM EDT (9/13) 12:37 AM EDT (9/13)
Length of Visible Light 13h 16m
Length of Day
12h 26m
First Quarter, 61% of the Moon is Illuminated
Sep 13
First Quarter
Sep 19
Full
Sep 26
Last Quarter
Oct 4
New
Oct 11
First Quarter

Hourly Weather History & Observations

Time (EDT) Temp. Heat Index Dew Point Humidity Pressure Visibility Wind Dir Wind Speed Gust Speed Precip Events Conditions
12:15 AM 75.2 °F - 68.0 °F 78% 29.88 in 10.0 mi WSW 6.9 mph - N/A   Clear
12:35 AM 75.2 °F - 68.0 °F 78% 29.87 in 10.0 mi SW 8.1 mph - N/A   Clear
12:55 AM 75.2 °F - 68.0 °F 78% 29.87 in 10.0 mi SW 5.8 mph - N/A   Clear
1:15 AM 75.2 °F - 68.0 °F 78% 29.86 in 10.0 mi SW 6.9 mph - N/A   Clear
1:35 AM 75.2 °F - 66.2 °F 73% 29.85 in 10.0 mi SW 10.4 mph - N/A   Clear
1:55 AM 75.2 °F - 66.2 °F 73% 29.85 in 10.0 mi WSW 8.1 mph - N/A   Clear
2:15 AM 75.2 °F - 66.2 °F 73% 29.84 in 10.0 mi WSW 9.2 mph - N/A   Clear
2:35 AM 75.2 °F - 66.2 °F 73% 29.84 in 10.0 mi WSW 8.1 mph - N/A   Clear
2:55 AM 75.2 °F - 66.2 °F 73% 29.83 in 10.0 mi WSW 8.1 mph - N/A   Clear
3:15 AM 75.2 °F - 66.2 °F 73% 29.83 in 10.0 mi WSW 9.2 mph - N/A   Clear
3:35 AM 73.4 °F - 66.2 °F 78% 29.82 in 10.0 mi WSW 8.1 mph - N/A   Clear
3:55 AM 73.4 °F - 66.2 °F 78% 29.82 in 10.0 mi WSW 9.2 mph - N/A   Scattered Clouds
4:15 AM 73.4 °F - 66.2 °F 78% 29.81 in 10.0 mi WSW 6.9 mph - N/A   Scattered Clouds
4:35 AM 73.4 °F - 68.0 °F 83% 29.81 in 10.0 mi WSW 6.9 mph - N/A   Clear
4:55 AM 73.4 °F - 66.2 °F 78% 29.81 in 10.0 mi WSW 8.1 mph - N/A   Partly Cloudy
5:15 AM 73.4 °F - 68.0 °F 83% 29.81 in 10.0 mi WSW 10.4 mph 16.1 mph N/A   Clear
5:35 AM 73.4 °F - 68.0 °F 83% 29.81 in 10.0 mi WSW 8.1 mph - N/A   Clear
6:45 AM 73.4 °F - 68.0 °F 83% 29.81 in 10.0 mi West 5.8 mph - N/A   Clear
7:45 AM 73.4 °F - 68.0 °F 83% 29.82 in 10.0 mi West 9.2 mph - N/A   Clear
8:45 AM 75.2 °F - 69.8 °F 83% 29.82 in 10.0 mi West 9.2 mph - N/A   Clear
9:45 AM 75.2 °F - 69.8 °F 83% 29.83 in 10.0 mi WNW 11.5 mph - N/A   Clear
11:45 AM 84.2 °F 88.4 °F 69.8 °F 62% 29.81 in 10.0 mi North 8.1 mph - N/A   Clear
2:45 PM 87.8 °F 90.4 °F 66.2 °F 49% 29.76 in 10.0 mi NNW 9.2 mph - N/A   Scattered Clouds
3:35 PM 86.0 °F 91.8 °F 71.6 °F 62% 29.75 in 10.0 mi South 13.8 mph - N/A   Mostly Cloudy
3:55 PM 86.0 °F 91.8 °F 71.6 °F 62% 29.75 in 10.0 mi South 13.8 mph - N/A   Mostly Cloudy
4:45 PM 84.2 °F 89.6 °F 71.6 °F 66% 29.75 in 10.0 mi SSW 11.5 mph - N/A   Mostly Cloudy
5:45 PM 84.2 °F 90.9 °F 73.4 °F 70% 29.76 in 10.0 mi SSW 8.1 mph - N/A   Mostly Cloudy
6:50 PM 82.4 °F 88.2 °F 73.4 °F 74% 29.78 in 10.0 mi SW 6.9 mph - N/A   Scattered Clouds
7:45 PM 80.6 °F 84.6 °F 71.6 °F 74% 29.77 in 10.0 mi Calm Calm - N/A   Partly Cloudy
8:45 PM 75.2 °F - 71.6 °F 89% 29.79 in 10.0 mi Calm Calm - N/A   Clear
9:45 PM 73.4 °F - 68.0 °F 83% 29.81 in 10.0 mi Calm Calm - N/A   Clear
10:55 PM 75.2 °F - 68.0 °F 78% 29.83 in 10.0 mi Calm Calm - N/A   Overcast
11:15 PM 75.2 °F - 68.0 °F 78% 29.83 in 10.0 mi Calm Calm - N/A   Overcast
11:35 PM 73.4 °F - 66.2 °F 78% 29.82 in 10.0 mi Calm Calm - N/A   Mostly Cloudy
11:55 PM 73.4 °F - 64.4 °F 73% 29.83 in 10.0 mi North 13.8 mph 19.6 mph N/A   Scattered Clouds